Showing default

HISPASAT 36W-1, 41942

Orbit data source: Space-Track

HISPASAT 36W-1, 41942 is a payload satellite owned by Hispasat (ES) in GEO that was launched on Sat, 28 Jan 2017 UTC via a SOYUZ-ST-B launch vehicle from the French Guiana (FRGUI). Payloads include a variety of satellites, spacecraft, and rockets equipped with specific instruments for various scientific and technological missions. These include communications satellites like Starlink; space stations such as the ISS; scientific satellites like the Hubble; Earth observation satellites from companies like Planet Labs, Umbra, and HawkEye 360; GPS; miniature CubeSats for education and research; and military/defense satellites.

Not visible in the next 10 days
HISPASAT 36W-1 details
Identifier
41942, 2017-006A
Orbit
GEO
Last TLE update1 day ago
Origin
Flag of ESHispasat (ES / SPN)
ManufacturerOHB
MissionOperational Commercial Communications
Bus & MotorSMALLGEO, S400
Mass3,220 kg wet, 1,700 kg dry
Launch date (UTC)
2017-01-28 (8 years ago)
Launch vehicle
SOYUZ-ST-B
Launch site
French Guiana (FRGUI)
Object type
Payload
Rocket body
Debris
Shape & HBRBox + 2 Pan, 20.8 m
Radar Cross Section23.149 m², Large (>1 m²)

Expand to show TLE details & history

TLE from 1 day ago
0 HISPASAT 36W-1
1 41942U 17006A   24336.43812073 -.00000216  00000-0  00000-0 0  9990
2 41942   0.0102 342.0160 0001038 244.9236 325.5650  1.00264840 28576
Epoch: 2024-12-01T10:30Z
Definitive object data (Epoch: 2024-12-01T10:30:53.631Z)
Latitude-0.02258°
Longitude-36.03326°
Altitude35,784.423 km
Speed3.075 km/s
True Right ascension12h 49m 51s
True Declination0° 01' 21"
Sunlit
Object was in daylight at TLE epoch
Visualization TLE readout
Latitude-0.02894°
Longitude-17.45646°
Altitude35,783.908 km
Speed3.075 km/s
Apparent Right ascension14h 30m 00s
Apparent Declination-5° 44' 44"
Sunlit
Object is in daylight
Visualization observer readout
Local Sidereal Time09:27:55
Azimuth103.787° ESE
Elevation7.27°
Doppler factor1
Orbital elements
Apogee altitude35,793.989 km
Perigee altitude35,785.235 km
Semi-major axis42,167.749 km
Eccentricity0.0001038
Inclination0.0102°
RAAN342.016°
Arg. of periapsis244.9236°
True anomaly325.55827°
Mean anomaly325.565°
Eccentric anomaly325.56164°
Mean motion0.25065 °/min
BSTARUnknown
Orbital period1436.25 mins
Loading historical data...
41942 neighbors
Authenticating...
Loading maneuver chart data...
Loading historical data...
Loading historical data...
Loading historical data...
Loading historical data...
Loading historical data...
Loading historical data...
Loading historical data...
Other satellites on launch #6 in the year 2017 (2017-01-28 UTC)

HISPASAT 36W-1 Visibility forecast

Observer location: undefined°, undefined

HISPASAT 36W-1 is not visible in the next 10 days
Span
Click to sort rows by Start time (UTC) header in descending order
Start Az.
Max El. time (UTC)
Max El. Az.
Max El.
End time (UTC)
End Az.
|